This is the latest recevied weather packets stored in our database for station/object W0SS-13. If no packets are shown the sender has not sent any weather packets the latest 10 day(s).
| Time | Temp. | Humidity | Pressure | Rain* | Wind** | Luminosity | Snow |
|---|---|---|---|---|---|---|---|
| 1777922087 | 26.67° C | 45% | 1003.7 hPa | 0 mm | - | 771 W/m² | - |
| 1777921782 | 27.22° C | 44% | 1003.5 hPa | 0 mm | - | 775 W/m² | - |
| 1777921478 | 26.67° C | 45% | 1003.6 hPa | 0 mm | - | 785 W/m² | - |
| 1777921175 | 26.67° C | 42% | 1003.9 hPa | 0 mm | - | 796 W/m² | - |
| 1777920872 | 26.67° C | 44% | 1003.7 hPa | 0 mm | - | 801 W/m² | - |
| 1777920568 | 26.11° C | 47% | 1003.7 hPa | 0 mm | - | 788 W/m² | - |
| 1777920264 | 26.11° C | 47% | 1003.9 hPa | 0 mm | - | 646 W/m² | - |
| 1777919960 | 26.67° C | 47% | 1003.7 hPa | 0 mm | - | 801 W/m² | - |
| 1777919657 | 26.11° C | 52% | 1003.9 hPa | 0 mm | - | 813 W/m² | - |
| 1777919355 | 25.56° C | 49% | 1003.9 hPa | 0 mm | - | 826 W/m² | - |
| 1777919052 | 25.56° C | 48% | 1004.2 hPa | 0 mm | - | 712 W/m² | - |
| 1777918749 | 25.56° C | 49% | 1004 hPa | 0 mm | - | 799 W/m² | - |
| 1777918446 | 25.56° C | 50% | 1004.1 hPa | 0 mm | - | 658 W/m² | - |
| 1777918145 | 25° C | 49% | 1004.1 hPa | 0 mm | - | 796 W/m² | - |
| 1777917843 | 25° C | 48% | 1003.9 hPa | 0 mm | - | 804 W/m² | - |
| 1777917541 | 25° C | 48% | 1004.1 hPa | 0 mm | - | 801 W/m² | - |
| 1777917237 | 25° C | 50% | 1004.2 hPa | 0 mm | - | 798 W/m² | - |
| 1777916935 | 25° C | 51% | 1004.3 hPa | 0 mm | - | 797 W/m² | - |
| 1777916633 | 25° C | 48% | 1004.2 hPa | 0 mm | - | 796 W/m² | - |
| 1777916330 | 25° C | 50% | 1004.4 hPa | 0 mm | - | 795 W/m² | - |
| 1777916026 | 24.44° C | 51% | 1004.4 hPa | 0 mm | - | 790 W/m² | - |
| 1777915724 | 24.44° C | 48% | 1004.2 hPa | 0 mm | - | 778 W/m² | - |
| 1777915420 | 23.89° C | 49% | 1004.2 hPa | 0 mm | - | 780 W/m² | - |
| 1777915116 | 23.89° C | 51% | 1004.6 hPa | 0 mm | - | 779 W/m² | - |
| 1777914813 | 23.89° C | 51% | 1004.6 hPa | 0 mm | - | 773 W/m² | - |
* Rain latest hour (hover to see other rain measurements)
** Current wind speed in m/s (hover to see current wind gust speed)